Погода Рудня

Погода Рудня : погода сейчас, прогноз погоды и архив. Всё, что Вы хотите узнать о погоде Рудня!

Поиск расширенной информации на нашем сайте:

Полезная информация: Доставка суши и пиццы в донецке domaed.com.

Другие новости

Новости СМИ2

Главная страница сайта

Новости сайта

02.10.2013

Напоминаем, что на нашем новом сайте вы можете получить высокодетализированные прогнозы погоды по пунктам России, СНГ и мира (включающие важные для авиации метеовеличины, такие как направление и скорость ветра, видимость, явления погоды, количество и форма облачности, нижняя и верхняя граница облачности), а также ознакомиться с разнообразными материалами по авиационной метеорологии и подборкой полезных ссылок на эту тему.

Сайт Метеоцентр.Азия посвящён разработке технологий оптимизации авиаметеорологического обслуживания, включая проектирование и перспективное создание нескольких автоматизированных авиаметеорологических систем:
- система выпуска высокодетальных прогностических карт явлений погоды для нижнего воздушного пространства по России и ближнему зарубежью;
- система верификации прогнозов TAF (выпускаемых синоптиками официальных АМСГ РФ и ближнего зарубежья) и AUTOTAF (выпускаемых сайтом Метеоцентр.Азия) - выявление ошибок, онлайн-сопоставление с фактической погодой METAR, автоматическое внесение коррективов в прогнозы при резком отклонении фактической погоды от прогноза, подсчёт оправдываемости прогнозов по элементам и в целом;
- система обработки, анализа и отображения авиаметеорологической информации для применения провайдерами метеорологической информации.

Рекомендуем: холодильная витрина

Погода Рудня - сегодня

Время (UTC), дата Ветер
(°,м/с) 
Видим.   Явления Облачность Т
(°С)
Тd
(°С)
f(%) Тe
(°С)
Pmin
(гПа)
dP
(гПа)
Po
(мм)
O2
(г/м3)
Тmin Tmax R s Состояние
почвы
12 22.04.17 290 (З) 4-10{12}  10 км  слаб. ливневой дождь  10/10 600 м кучево-дожд. 
[Cb cap]
+7 +3.4 78 +6  1002.5  0.6  741  291           
15 22.04.17 280 (З) 5-10{13}  10 км  {ливн. осадки}  10/10 600 м кучево-дожд. 
[Cb cap]
+5.9 +2.4 78 +4  1004.9  2.3  743  293    +9.5     
18 22.04.17 240 (ЮЗ) 2{10}  10 км  {ливн. осадки}  ясно 
+4.9 +1.9 81 +5  1007.1  745  294           
21 22.04.17 250 (З) 4{10}  10 км    8/8 600 м 
[Sc]
+6.1 +2.1 75 +5  1007.2  0.2  745  293           
00 23.04.17 250 (З) 4{11}  10 км    ясно 
+7.1 +3.2 76 +6  1007.3  0.2  745  292           
03 23.04.17 270 (З) 3{10}  10 км    9/9 600 м кучево-дожд. 
[Cb cap]
+7.3 +4.7 84 +7  1008.5  1.2  746  292  +4.4    21    мокрая 
06 23.04.17 220 (ЮЗ) 10 км    10/8 600 м средняя 
[Sc|As op]
+9 +5.7 80 +9  1010.1  1.6  747  290           
09 23.04.17 240 (ЮЗ) 10 км  слаб. дождь  10/5 600 м средняя 
[Sc|As op]
+9.8 +5.8 76 +10  1010.5  0.5  747  290           
12 23.04.17 180 (Ю) 10 км  {дождь}  10/10 600 м 
[Sc]
+10.7 +6.3 74 +12  1009.4  -1.1  747  288           
15 23.04.17 090 (В) 10 км  слаб. дождь  10/8 600 м средняя 
[Sc|As op]
+9.1 +7.8 92 +10  1007.6  -1.9  745  289    +11.8     
18 23.04.17 140 (ЮВ) 10 км  слаб. дождь  10/10 300 м 
[Frnb|Ns]
+8.3 +7.6 95 +9  1008.4  0.8  746  290           
21 23.04.17 130 (ЮВ) 4000 м  дождь  10/10 300 м 
[Frnb]
+6.5 +5.7 95 +6  1007.1  -1.4  745  292           
00 24.04.17 080 (В) 4000 м  дождь  10/10 300 м 
[Frnb]
+6.2 +5.5 95 +6  1002.9  -4.1  742  291           
03 24.04.17 020 (С) 10 км  слаб. дождь  10/10 300 м 
[Frnb]
+5.6 +4.9 95 +5  998.6  -4.1  738  291  +5.6    74    мокрая 
06 24.04.17 330 (СЗ) 10 км  слаб. дождь  10/10 300 м 
[Frnb]
+5.2 +4.4 95 +4  998.8  0.3  739  291  +5.1         
09 24.04.17 320 (СЗ) 5-10{10}  10 км  {дождь}  10/8 600 м средняя 
[Sc|As op]
+5.4 +3.1 85 +3  1000.4  1.5  740  292           
12 24.04.17 320 (СЗ) 7-12{12}  10 км  {дождь}  9/9 600 м кучево-дожд. 
[Cb cap]
+7.5 +2.7 72 +5  1004.2  3.9  743  291           
15 24.04.17 320 (СЗ) 2{14}  10 км    6/6 600 м кучево-дожд. 
[Cb cap]
+8 +2.2 67 +8  1007.5  3.3  745  291    +8.9     
18 24.04.17 170 (Ю) 10 км    5/3 600 м средняя 
[Sc|Ac trans]
+3.1 +1.8 91 +4  1010.7  2.8  747  297           
21 24.04.17 100 (В) 10 км    9/5 600 м средняя 
[Sc|Ac trans]
+3.1 +1.4 89 +4  1011.3  0.5  748  298           
00 25.04.17 160 (Ю) 10 км    9/8 600 м средняя 
[Sc|Ac trans]
+4.5 +1.8 83 +5  1012.2  748  296           
03 25.04.17 310 (СЗ) 10 км    10/10 600 м 
[St]
+4.4 +1.8 83 +4  1014.6  2.4  750  297  +2.9    50    мокрая 
06 25.04.17 320 (СЗ) 10 км  {дождь}  9/5 600 м средняя 
[Sc|Ac trans]
+5.9 +3.3 83 +6  1017  2.5  752  296           
09 25.04.17 260 (З) 10 км  в посл. час ливневой дождь  8/6 600 м кучево-дожд., средняя 
[Cb cap|Ac trans]
+8 +2.4 68 +8  1018.7  1.8  753  295           
12 25.04.17 290 (З) 5-11{14}  10 км  {ливн. осадки}  8/6 600 м кучево-дожд., средняя 
[Cb cap|Ac trans]
+11.2 -0.5 44 +10  1019.6  754  292           
Время (UTC), дата Ветер
(°,м/с) 
Видим.   Явления Облачность Т
(°С)
Тd
(°С)
f(%) Тe
(°С)
Pmin
(гПа)
dP
(гПа)
Po
(мм)
O2
(г/м3)
Тmin Tmax R s Состояние
почвы

Для получения пояснительной информации подведите курсор к названию столбца.

ПОГОДА Рудня - архив

Всё, что Вы хотите узнать о погоде Рудня - удобно и подробно!

Выберите нужную дату (начиная с 1 января 2015* года) и нажмите кнопку "Найти".
Будут отображены архивные сводки погоды по пункту Рудня, начиная с указанной даты.


Отображать данные в формате CSV (для использования в таблицах Excel)


Внимание! Наш архив погоды предназначен исключительно для личного некоммерческого использования в познавательных целях. Если Вам необходимы официальные справки о состоянии погоды (для производственных, юридических, коммерческих и т.п. целей), обращайтесь в органы Росгидромета.

*Примечание: данная дата относится к архиву по метеостанциям СССР (Россия, СНГ, Балтия).
Архив по метеостанциям Зарубежной Европы и Азии (кроме Китая) хранится 10 дней, по другим регионам земного шара (Китай, Африка, Америка, Австралия, Океания) - 1 день.

Рудня - район местоположения метеостанции


Название, широта, долгота, высота метеостанции:
Рудня 50.8°ш. 44.6°д. 114 м над ур. моря [Российская Федерация]

Дополнительная информация

В oтличие oт бoльшинства пoгoдных сайтoв мы публикуем пoдрoбную метеoинфoрмацию в детальнoм прoфессиoнальнoм фoрмате.

Характеристики температуры и влажнoсти вoздуха измеряются на высoте 2 м в тени вдали oт зданий и деревьев.
Скoрoсть ветра измеряется на высoте 10 м (на урoвне рoста челoвека скoрoсть ветра ниже в 1.5-2 раза). Если метеoстанция нахoдится в гoрoде или в лесу, тo скoрoсть ветра занижена на 2-4 м/с пo сравнению с oткрытым местoм. Скoрoсть ветра над акватoриями крупных рек и oзёр, а также на вершинах хoлмoв на 2-5 м/с выше, чем в oбычных услoвиях.
Атмoсфернoе давление в разных тoчках местнoсти мoжет значительнo oтличаться oт давления на метеoстанции, в зависимoсти oт услoвий рельефа (при пoдъёме на 10 м давление пoнижается примернo на 1 мм рт.ст.).